EW9744 Weather Reports


Display with metric or nautical units.
time (UTC)temp
F
wind
direction
speed
MPH
gust
MPH
rain 1hr
in
rain 24hr
in
rain mn
in
humidity
%
barometer
mb
20260510040027 62 284 4.0 6.0 0.00 0.00 0.00 45 1018.1
20260510034541 64 291 4.0 5.0 0.00 0.00 0.00 44 1018.1
20260510034531 65 292 4.0 5.0 0.00 0.00 0.00 43 1018.0
20260510031528 66 294 3.0 4.0 0.00 0.00 0.00 42 1018.0
20260510030107 67 292 3.0 4.0 0.00 0.00 0.00 41 1018.0
20260510024604 69 295 3.0 4.0 0.00 0.00 0.00 40 1018.0
20260510023029 70 296 3.0 4.0 0.00 0.00 0.00 39 1018.0
20260510021643 71 292 3.0 4.0 0.00 0.00 0.00 39 1018.0
20260510020033 73 313 2.0 4.0 0.00 0.00 0.00 37 1018.1
20260510014531 74 341 1.0 2.0 0.00 0.00 0.00 35 1018.3
20260510013029 74 5 0.0 2.0 0.00 0.00 0.00 33 1018.4
20260510011530 74 359 1.0 4.0 0.00 0.00 0.00 31 1018.5
20260510004602 76 9 2.0 5.0 0.00 0.00 0.00 28 1018.8
20260510003032 76 347 2.0 5.0 0.00 0.00 0.00 28 1018.8
20260510001535 77 353 2.0 6.0 0.00 0.00 0.00 29 1018.9
20260510000032 77 41 2.0 6.0 0.00 0.00 0.00 29 1018.9
20260509234530 78 89 3.0 7.0 0.00 0.00 0.00 27 1019.2
20260509233030 77 42 3.0 7.0 0.00 0.00 0.00 28 1019.3
20260509230030 78 55 4.0 9.0 0.00 0.00 0.00 27 1019.8
20260509224533 76 32 3.0 8.0 0.00 0.00 0.00 27 1020.0
20260509223027 76 34 5.0 11.0 0.00 0.00 0.00 29 1020.2
20260509221531 76 49 4.0 8.0 0.00 0.00 0.00 29 1020.5
20260509220034 75 51 3.0 8.0 0.00 0.00 0.00 30 1020.6
20260509214529 74 24 4.0 9.0 0.00 0.00 0.00 31 1020.8
20260509211531 74 46 6.0 12.0 0.00 0.00 0.00 35 1021.1
20260509210030 74 26 5.0 11.0 0.00 0.00 0.00 36 1021.3
20260509204611 72 32 4.0 10.0 0.00 0.00 0.00 38 1021.5
20260509204604 71 25 5.0 12.0 0.00 0.00 0.00 39 1021.6
20260509201531 70 27 5.0 10.0 0.00 0.00 0.00 40 1021.8
20260509200031 70 13 4.0 10.0 0.00 0.00 0.00 40 1022.1
20260509193030 68 39 2.0 9.0 0.00 0.00 0.00 47 1022.4
20260509191529 67 48 3.0 9.0 0.00 0.00 0.00 47 1022.4
20260509190030 66 32 3.0 7.0 0.00 0.00 0.00 43 1022.6
20260509184527 65 68 3.0 9.0 0.00 0.00 0.00 48 1022.7
20260509183031 64 45 3.0 8.0 0.00 0.00 0.00 52 1022.8
20260509181531 64 75 3.0 7.0 0.00 0.00 0.00 54 1023.0
20260509180028 63 60 3.0 8.0 0.00 0.00 0.00 59 1022.9
20260509174529 61 76 3.0 7.0 0.00 0.00 0.00 64 1022.9
20260509173106 60 83 4.0 9.0 0.00 0.00 0.00 64 1022.9
20260509171608 60 83 3.0 9.0 0.00 0.00 0.00 65 1023.0
20260509170028 59 23 2.0 5.0 0.00 0.00 0.00 66 1023.2
20260509164532 58 60 2.0 5.0 0.00 0.00 0.00 67 1023.2
20260509163031 57 63 3.0 6.0 0.00 0.00 0.00 67 1023.3
20260509161603 56 52 3.0 6.0 0.00 0.00 0.00 65 1023.3
20260509160029 57 89 3.0 7.0 0.00 0.00 0.00 64 1023.4
20260509154530 57 87 3.0 6.0 0.00 0.00 0.00 63 1023.4
20260509153030 57 113 2.0 5.0 0.00 0.00 0.00 64 1023.4
20260509143029 49 199 1.0 4.0 0.00 0.00 0.00 81 1023.4
20260509141606 51 132 2.0 4.0 0.00 0.00 0.00 77 1023.4
20260509140030 50 292 0.0 3.0 0.00 0.00 0.00 78 1023.3
20260509134532 48 291 2.0 5.0 0.00 0.00 0.00 81 1023.2
20260509133030 46 282 1.0 4.0 0.00 0.00 0.00 84 1023.2
20260509131603 45 278 3.0 5.0 0.00 0.00 0.00 85 1023.1
20260509130030 45 271 5.0 6.0 0.00 0.00 0.00 85 1022.8
20260509124531 45 270 4.0 5.0 0.00 0.00 0.00 84 1022.7
20260509123030 45 275 2.0 5.0 0.00 0.00 0.00 84 1022.7
20260509114606 45 306 4.0 5.0 0.00 0.00 0.00 83 1022.6
20260509113117 0 0 0.0 0.0 0.00 0.00 0.00 100
20260509111645 47 241 2.0 5.0 0.00 0.00 0.00 81 1022.7
20260509104530 48 252 3.0 5.0 0.00 0.00 0.00 80 1022.7
20260509101531 47 274 2.0 5.0 0.00 0.00 0.00 82 1022.8
20260509100031 47 320 2.0 5.0 0.00 0.00 0.00 81 1022.7
20260509093029 48 324 2.0 6.0 0.00 0.00 0.00 77 1023.0
20260509091532 49 8 2.0 5.0 0.00 0.00 0.00 76 1023.1
20260509090030 50 269 2.0 6.0 0.00 0.00 0.00 76 1023.1
20260509084532 50 231 3.0 6.0 0.00 0.00 0.00 76 1023.2
20260509083033 50 247 4.0 8.0 0.00 0.00 0.00 76 1023.5
20260509081532 50 277 4.0 8.0 0.00 0.00 0.00 76 1023.5
20260509080107 49 251 3.0 9.0 0.00 0.00 0.00 78 1023.6
20260509074532 49 246 3.0 6.0 0.00 0.00 0.00 78 1023.7
20260509070032 49 271 6.0 8.0 0.00 0.00 0.00 77 1024.2
20260509064530 50 272 5.0 8.0 0.00 0.00 0.00 75 1024.3
20260509063107 51 261 4.0 6.0 0.00 0.00 0.00 74 1024.4
20260509061534 50 254 4.0 6.0 0.00 0.00 0.00 75 1024.3
20260509054530 49 261 2.0 5.0 0.00 0.00 0.00 76 1024.1
20260509053031 50 261 2.0 7.0 0.00 0.00 0.00 75 1024.0
20260509051529 50 252 1.0 4.0 0.00 0.00 0.00 73 1023.9
20260509050030 51 239 1.0 5.0 0.00 0.00 0.00 71 1023.9
20260509044531 52 201 0.0 2.0 0.00 0.00 0.00 69 1023.8
20260509043146 53 273 1.0 5.0 0.00 0.00 0.00 67 1023.7